EW9935 Bellingham WA US current weather conditions

sailwx.info

Wind from 136 at 7 knots gusting 17

Air temperature 10.0° C
Dewpoint 10.0° C

Last reported at 2019-Dec-12 22:47 UTC.
Time now 2019-Dec-12 23:49 UTC

Location: N 48°42' W 122°30'.
View on Google Maps.

See reports from other nearby stations

  
Tides and Currents Weather Stations Pressure Air Temp Water Temp Dewpoint Dewpoint Depression Visibility Wind Speed Wind Dir Waves Ship Positions
date/time (UTC)wind fromknots sea level pressurealtimeterstation pressurevisibilityair tempwater tempwave heightnotes
2019-Dec-12 22:47 136 7 gusting 17 10.0
2019-Dec-12 22:31 141 4 gusting 9 10.0
2019-Dec-12 22:15 145 5 gusting 13 10.0
2019-Dec-12 22:01 113 8 gusting 18 10.0
2019-Dec-12 21:46 118 3 gusting 15 10.6
2019-Dec-12 21:30 121 4 gusting 14 10.6
2019-Dec-12 21:15 126 6 gusting 13 10.6
2019-Dec-12 21:01 126 7 gusting 13 10.6
2019-Dec-12 20:47 119 7 gusting 17 10.6
2019-Dec-12 20:31 112 5 gusting 11 10.6
2019-Dec-12 20:16 167 6 gusting 19 10.6
2019-Dec-12 20:00 153 9 gusting 16 10.6
2019-Dec-12 19:47 132 8 gusting 14 10.6
2019-Dec-12 19:31 126 6 gusting 13 10.6
2019-Dec-12 19:15 127 8 gusting 14 10.0
2019-Dec-12 19:01 165 7 gusting 13 10.0
2019-Dec-12 18:46 146 6 gusting 13 10.0
2019-Dec-12 18:31 140 5 gusting 13 10.0
2019-Dec-12 18:16 130 8 gusting 17 10.0
2019-Dec-12 18:00 128 8 gusting 13 10.0
2019-Dec-12 17:45 140 7 gusting 13 10.0
2019-Dec-12 17:31 123 6 gusting 13 10.0
2019-Dec-12 17:15 153 4 gusting 9 10.0
2019-Dec-12 17:00 128 3 gusting 8 10.0
2019-Dec-12 16:46 159 5 gusting 11 10.0
2019-Dec-12 16:30 123 3 gusting 10 10.0
2019-Dec-12 16:15 142 6 gusting 13 10.0
2019-Dec-12 16:00 169 8 gusting 17 10.6
2019-Dec-12 15:45 095 6 gusting 15 10.0
2019-Dec-12 15:30 146 3 gusting 8 10.0
2019-Dec-12 15:15 144 4 gusting 11 10.0
2019-Dec-12 15:00 142 4 gusting 12 10.0
2019-Dec-12 14:45 155 6 gusting 9 10.0
2019-Dec-12 14:30 120 5 gusting 10 10.0
2019-Dec-12 14:15 142 6 gusting 10 10.0
2019-Dec-12 14:00 155 2 gusting 8 10.0
2019-Dec-12 13:45 070 2 gusting 9 10.0
2019-Dec-12 13:30 103 2 gusting 9 10.0
2019-Dec-12 13:15 081 1 gusting 10 10.0
2019-Dec-12 13:00 109 6 gusting 9 10.0
2019-Dec-12 12:45 125 3 gusting 11 10.0
2019-Dec-12 12:32 085 5 gusting 8 10.6
2019-Dec-12 12:17 130 2 gusting 10 11.1
2019-Dec-12 12:03 146 2 gusting 8 10.6
2019-Dec-12 11:47 155 5 gusting 10 10.6
2019-Dec-12 11:32 158 4 gusting 9 10.6
2019-Dec-12 11:18 173 6 gusting 13 10.6
2019-Dec-12 11:01 132 6 gusting 11 10.6
2019-Dec-12 10:47 148 6 gusting 13 10.6
2019-Dec-12 10:32 116 6 gusting 9 10.0
2019-Dec-12 10:17 099 3 gusting 7 9.4
2019-Dec-12 10:01 144 4 gusting 7 9.4
2019-Dec-12 09:46 161 5 gusting 9 9.4
2019-Dec-12 09:31 159 6 gusting 10 9.4
2019-Dec-12 09:16 165 8 gusting 12 9.4
2019-Dec-12 09:03 117 6 gusting 18 10.0
2019-Dec-12 08:46 127 8 gusting 13 10.6
2019-Dec-12 08:31 142 8 gusting 20 10.6
2019-Dec-12 08:16 171 10 gusting 24 11.1
2019-Dec-12 08:00 150 6 gusting 14 11.1
2019-Dec-12 07:45 088 5 gusting 14 10.6
2019-Dec-12 07:30 101 6 gusting 13 10.6
2019-Dec-12 07:01 105 5 gusting 12 10.0
2019-Dec-12 06:45 156 6 gusting 19 10.0
2019-Dec-12 06:31 090 7 gusting 17 10.0
2019-Dec-12 06:15 088 7 gusting 16 9.4
2019-Dec-12 06:00 095 6 gusting 15 9.4
2019-Dec-12 05:45 093 8 gusting 18 9.4
2019-Dec-12 05:30 089 7 gusting 13 9.4
2019-Dec-12 05:15 051 6 gusting 12 9.4
2019-Dec-12 05:00 107 6 gusting 15 9.4
2019-Dec-12 04:45 092 6 gusting 12 10.0
2019-Dec-12 04:30 113 5 gusting 16 10.0
2019-Dec-12 04:15 098 5 gusting 12 9.4
2019-Dec-12 04:00 088 6 gusting 13 9.4
2019-Dec-12 03:45 120 6 gusting 13 9.4
2019-Dec-12 03:35 098 6 gusting 11 9.4
2019-Dec-12 03:17 171 6 gusting 18 9.4
2019-Dec-12 03:02 105 6 gusting 13 9.4
2019-Dec-12 02:46 133 8 gusting 17 9.4
2019-Dec-12 02:32 163 6 gusting 12 10.0
2019-Dec-12 02:18 121 4 gusting 11 10.0
2019-Dec-12 02:01 112 4 gusting 9 9.4
2019-Dec-12 01:46 080 3 gusting 10 10.0
2019-Dec-12 01:31 123 4 gusting 11 10.0
2019-Dec-12 01:17 101 6 gusting 16 10.0
2019-Dec-12 01:02 132 6 gusting 15 10.6
2019-Dec-12 00:46 163 7 gusting 15 10.6
2019-Dec-12 00:31 127 5 gusting 21 11.1
2019-Dec-12 00:15 140 7 gusting 15 10.6
2019-Dec-12 00:01 117 5 gusting 15 10.6
2019-Dec-11 23:46 098 4 gusting 16 10.6
2019-Dec-11 23:32 113 7 gusting 13 10.6
2019-Dec-11 23:15 116 7 gusting 16 10.0
2019-Dec-11 23:01 139 2 gusting 10 9.4
2019-Dec-11 22:46 093 5 gusting 7 8.3
2019-Dec-11 22:30 360 0 gusting 3 7.8
2019-Dec-11 22:16 335 1 gusting 3 7.8
2019-Dec-11 22:00 087 8.3
2019-Dec-11 21:45 096 7.8
2019-Dec-11 21:31 047 1 gusting 4 7.8
2019-Dec-11 21:15 355 4 gusting 8 7.2
2019-Dec-11 21:00 026 3 gusting 7 7.2
2019-Dec-11 20:32 317 1 gusting 5 6.7
2019-Dec-11 20:18 355 2 gusting 5 6.7
2019-Dec-11 20:03 340 2 gusting 4 6.7
2019-Dec-11 19:47 005 1 gusting 3 6.7
2019-Dec-11 19:32 350 1 gusting 3 6.7
2019-Dec-11 19:16 325 1 gusting 3 6.7
2019-Dec-11 19:01 355 4 gusting 8 6.1
2019-Dec-11 18:46 329 3 gusting 6 6.7
2019-Dec-11 18:32 275 2 gusting 6 6.7
2019-Dec-11 18:16 296 0 gusting 5 6.1
2019-Dec-11 18:01 344 2 gusting 8 6.1
2019-Dec-11 17:46 022 4 gusting 6 6.1
2019-Dec-11 17:31 012 4 gusting 8 5.6
2019-Dec-11 17:16 323 0 gusting 3 5.6
2019-Dec-11 17:01 344 1 gusting 4 5.6
2019-Dec-11 16:46 294 6.1
2019-Dec-11 16:31 293 6.1
2019-Dec-11 16:16 313 1 gusting 3 6.1
2019-Dec-11 16:01 085 6.1
2019-Dec-11 15:45 148 0 gusting 2 6.1
2019-Dec-11 15:31 076 0 gusting 2 6.1
2019-Dec-11 15:15 085 6.1
2019-Dec-11 15:01 080 6.1
2019-Dec-11 14:46 005 5.0
2019-Dec-11 14:31 347 5.0
2019-Dec-11 14:16 323 0 gusting 2 5.0
2019-Dec-11 14:00 336 5.0
2019-Dec-11 13:46 344 5.0
2019-Dec-11 13:30 355 5.6
2019-Dec-11 13:16 025 0 gusting 3 5.6
2019-Dec-11 13:00 036 5.6
2019-Dec-11 12:45 005 5.0
2019-Dec-11 12:31 333 1 gusting 4 5.0
2019-Dec-11 12:15 306 1 gusting 3 5.6
2019-Dec-11 12:00 276 1 gusting 3 5.6
2019-Dec-11 11:45 302 0 gusting 4 5.6
2019-Dec-11 11:31 278 2 gusting 6 6.1
2019-Dec-11 11:15 194 6.1
2019-Dec-11 11:01 173 6.7
2019-Dec-11 10:46 104 6.7
2019-Dec-11 10:31 102 0 gusting 3 6.1
2019-Dec-11 10:15 041 5.6
2019-Dec-11 10:00 360 5.0
2019-Dec-11 09:45 325 0 gusting 2 5.0
2019-Dec-11 09:30 302 1 gusting 3 5.0
2019-Dec-11 09:21 317 5.0
2019-Dec-11 09:03 355 5.0
2019-Dec-11 08:48 320 0 gusting 2 5.0
2019-Dec-11 08:32 290 0 gusting 2 5.0
2019-Dec-11 08:17 314 5.0
2019-Dec-11 08:04 292 5.0
2019-Dec-11 07:47 264 5.0
2019-Dec-11 07:33 283 0 gusting 3 5.0
2019-Dec-11 07:17 309 1 gusting 3 5.0
2019-Dec-11 07:01 304 5.6
2019-Dec-11 06:50 067 5.6
2019-Dec-11 06:33 039 5.0
2019-Dec-11 06:16 312 5.0
2019-Dec-11 06:02 298 5.0
2019-Dec-11 05:47 314 1 gusting 3 4.4
2019-Dec-11 05:33 320 1 gusting 3 4.4
2019-Dec-11 05:18 322 0 gusting 3 4.4
2019-Dec-11 05:01 342 4.4
2019-Dec-11 04:47 348 2 gusting 4 4.4
2019-Dec-11 04:32 360 1 gusting 4 4.4
2019-Dec-11 04:16 309 1 gusting 4 4.4
2019-Dec-11 04:02 286 0 gusting 3 5.0
2019-Dec-11 03:48 336 1 gusting 3 4.4
2019-Dec-11 03:32 346 3 gusting 6 4.4
2019-Dec-11 03:16 332 0 gusting 3 4.4
2019-Dec-11 03:02 322 0 gusting 2 4.4
2019-Dec-11 02:47 346 1 gusting 4 4.4
2019-Dec-11 02:32 009 2 gusting 6 4.4
2019-Dec-11 02:17 344 0 gusting 3 4.4
2019-Dec-11 02:02 347 1 gusting 5 4.4
2019-Dec-11 01:45 347 0 gusting 5 3.9
2019-Dec-11 01:31 021 1 gusting 5 3.9
2019-Dec-11 01:16 028 2 gusting 6 3.9
2019-Dec-11 01:01 010 2 gusting 5 3.9
2019-Dec-11 00:45 346 2 gusting 5 3.9
2019-Dec-11 00:31 355 1 gusting 4 3.9
2019-Dec-11 00:15 019 2 gusting 4 4.4
2019-Dec-11 00:00 315 1 gusting 3 4.4
2019-Dec-10 23:47 330 2 gusting 5 4.4
2019-Dec-10 23:31 311 1 gusting 4 4.4
2019-Dec-10 23:17 350 2 gusting 4 4.4
2019-Dec-10 23:01 344 1 gusting 3 4.4